Miscellaneous Local Product
Issued by NWS Hastings, NE

Home | Current Version | Previous Version | Graphics & Text | Print | Product List | Glossary On
Versions: 1 2 3 4 5 6 7 8 9 10 11 12 13 14 15 16 17 18 19 20 21 22 23 24 25 26 27 28 29 30 31 32 33 34 35 36 37 38 39 40 41 42 43 44 45 46 47 48 49 50
000
AXUS43 KGID 011402
MISGRI

GID CWA HOURLY WEATHER ROUNDUP
NATIONAL WEATHER SERVICE HASTINGS NE
900 AM CDT FRI AUG 01 2014

NOTE: "FAIR" INDICATES FEW OR NO CLOUDS BELOW 12,000 FEET WITH NO
SIGNIFICANT WEATHER AND/OR OBSTRUCTIONS TO VISIBILITY.

...SOUTH CENTRAL NEBRASKA...

CITY           SKY/WX    TMP DP  RH WIND       PRES   REMARKS
GRAND ISLAND   SUNNY     65  60  84 N6        30.11R
HASTINGS       SUNNY     66  59  78 N8        30.11R
KEARNEY        SUNNY     64  59  82 NW7       30.13R
ORD            SUNNY     65  61  87 NW6       30.12R
YORK           SUNNY     64  63  94 N8        30.09R
AURORA         SUNNY     65  64  94 N6        30.10R
LEXINGTON      SUNNY     64  60  88 W5        30.13S
HOLDREGE       SUNNY     64  61  91 N3        30.13R FOG
HEBRON         SUNNY     64  56  75 NW5       30.06R

...NEBRASKA PANHANDLE...

CITY           SKY/WX    TMP DP  RH WIND       PRES   REMARKS
CHADRON        SUNNY     66  49  54 SW5       30.15S
ALLIANCE       SUNNY     65  49  56 CALM      30.20R
SCOTTSBLUFF    SUNNY     65  52  62 NW3       30.21R
SIDNEY         SUNNY     66  49  54 NW3       30.23R

...WESTERN AND NORTH CENTRAL NEBRASKA...

CITY           SKY/WX    TMP DP  RH WIND       PRES   REMARKS
VALENTINE      SUNNY     67  55  65 SW3       30.12S
AINSWORTH      SUNNY     70  61  72 S5        30.13S
ONEILL         SUNNY     66  65  99 CALM      30.13R
BROKEN BOW     SUNNY     68  63  84 CALM      30.14R
IMPERIAL       SUNNY     69  55  60 CALM      30.16R
NORTH PLATTE   SUNNY     64  56  75 CALM      30.15R
MCCOOK           N/A     66  57  72 CALM      30.14R

...EASTERN NEBRASKA...

CITY           SKY/WX    TMP DP  RH WIND       PRES   REMARKS
NORFOLK        SUNNY     67  60  78 E5        30.11R
SO SIOUX CITY  SUNNY     66  61  84 CALM      30.10S
TEKAMAH        CLOUDY    67  62  84 N7        30.10R
ALBION         SUNNY     65  60  84 CALM      30.11S
OMAHA EPPLEY   PTSUNNY   69  60  73 CALM      30.08R
OFFUTT AFB     SUNNY     71  66  83 E7        30.07R
MILLARD        SUNNY     70  62  75 SE5       30.07R
LINCOLN        SUNNY     70  60  70 E5        30.07R
NEBRASKA CITY  MOSUNNY   67  61  82 E9        30.07R
BEATRICE       SUNNY     68  60  75 CALM      30.04S
FALLS CITY     MOSUNNY   72  64  76 SE12      30.06R

...NORTHERN KANSAS...

CITY           SKY/WX    TMP DP  RH WIND       PRES   REMARKS
GOODLAND       MOSUNNY   68  57  68 W9        30.20R
HILL CITY      SUNNY     74  59  59 N10       30.12R
NORTON         SUNNY     72  57  60 NW6       30.13R
PHILLIPSBURG   SUNNY     70  63  78 NW7       30.10R
SMITH CENTER   SUNNY     66  61  82 NW10      30.10R
HAYS           SUNNY     72  57  60 N8        30.10R
RUSSELL        SUNNY     71  58  63 N9        30.07R
CONCORDIA      SUNNY     69  60  73 NW6       30.05R
SALINA         SUNNY     74  59  59 W8        30.05R
TOPEKA         PTSUNNY   71  64  78 E5        30.08R



USA.gov is the U.S. government's official web portal to all federal, state and local government web resources and services.